Back to catalog

ATLAS 5 CENTAUR DEB

LostHEO
NORAD 52967·DEBRIS·🇺🇸 United States

Launched Oct 17, 2018 from Cape Canaveral Space Force Station

Loading…

Next Passes (next 24 hours)

TLE

StaleSource: Space-Track

Epoch: Jul 12, 2026, 00:18 UTC

1 52967U 18079GR  26193.01259894 -.00000097  00000-0  00000-0 0  9990
2 52967  13.2649  35.4426 4718647 320.3459  13.1554  1.78381518 26798

Track ATLAS 5 CENTAUR DEB in real time with AllMySat

Download on the App Store